Location: Highland Meadows Observing Site
(48.4428°N, 114.5461°W)
Time: 08:16:45
(UTC-06:00)

Gurwin Techsat 1B - Visible Passes

Search period start: 31 August 2016 00:00
Search period end: 10 September 2016 00:00
Orbit: 811 x 815 km, 98.6° (Epoch: 30 August)

Date Brightness Start Highest point End Pass type
(mag) Time Alt. Az. Time Alt. Az. Time Alt. Az.
31 Aug 10.3 02:49:50 10° NE 02:54:06 24° E 02:54:30 24° E visible
31 Aug 8.8 04:29:12 10° N 04:34:24 55° WNW 04:35:42 44° WSW visible
31 Aug 10.7 06:12:08 10° NW 06:13:14 11° NW 06:14:19 10° WNW visible
01 Sep 10.8 02:27:53 10° NE 02:31:02 16° E 02:31:20 16° E visible
01 Sep 8.5 04:06:18 10° NNE 04:11:40 83° WNW 04:12:32 63° SSW visible
01 Sep 10.4 05:47:48 10° NNW 05:50:50 16° NW 05:53:45 10° W visible
02 Sep 8.7 03:43:32 10° NNE 03:48:51 66° ESE 03:49:23 62° SE visible
02 Sep 10.0 05:24:20 10° N 05:28:21 22° WNW 05:30:34 17° W visible
03 Sep 9.4 03:20:54 10° NNE 03:25:58 43° E 03:26:13 42° ESE visible
03 Sep 9.5 05:01:08 10° N 05:05:48 32° WNW 05:07:25 27° W visible
04 Sep 10.1 02:58:27 10° NE 03:03:01 28° E 03:03:03 28° E visible
04 Sep 9.0 04:38:05 10° N 04:43:10 47° WNW 04:44:16 41° WSW visible
05 Sep 10.6 02:36:18 10° NE 02:39:54 19° E 02:39:54 19° E visible
05 Sep 8.5 04:15:09 10° N 04:20:28 71° WNW 04:21:06 64° WSW visible
05 Sep 10.6 05:57:02 10° NNW 05:59:31 13° NW 06:01:59 10° W visible
06 Sep 11.1 02:15:00 10° ENE 02:16:44 12° E 02:16:44 12° E visible
06 Sep 8.5 03:52:20 10° NNE 03:57:41 78° ESE 03:57:56 76° SE visible
06 Sep 10.2 05:33:23 10° NNW 05:37:04 19° WNW 05:39:08 16° W visible
07 Sep 9.2 03:29:39 10° NNE 03:34:46 51° E 03:34:46 51° E visible
07 Sep 9.7 05:10:05 10° N 05:14:32 28° WNW 05:15:58 24° W visible
08 Sep 9.9 03:07:07 10° NNE 03:11:36 33° E 03:11:36 33° E visible
08 Sep 9.2 04:46:59 10° N 04:51:56 40° WNW 04:52:48 37° W visible
09 Sep 10.5 02:44:49 10° NE 02:48:26 22° E 02:48:26 22° E visible
09 Sep 8.6 04:24:01 10° N 04:29:16 60° WNW 04:29:38 59° W visible
09 Sep 10.6 06:06:28 10° NNW 06:08:11 12° NW 06:09:54 10° WNW visible
